Regional Weather Roundup
Issued by NWS

Home | Current Version | Previous Version | Text Only | Print | Product List | Glossary On
Versions: 1 2 3 4 5 6 7 8 9 10 11 12 13 14 15 16 17 18 19 20 21 22 23 24 25 26 27 28 29 30 31 32 33 34 35 36 37 38 39 40 41 42 43 44 45 46 47 48 49 50
000
ASUS43 KDMX 232207
RWRIA

WEATHER ROUNDUP FOR IOWA
NATIONAL WEATHER SERVICE DES MOINES IA
500 PM CDT WED JUL 23 2014

NOTE: "FAIR" INDICATES FEW OR NO CLOUDS BELOW 12,000 FEET WITH NO
SIGNIFICANT WEATHER AND/OR OBSTRUCTIONS TO VISIBILITY.

* - THESE STATIONS ARE NOT NWS STATIONS...THUS NOT UNDER NWS
QUALITY CONTROL.  THEY ALSO DO NOT REPORT WEATHER SUCH
AS PRECIPITATION OR FOG.

IAZ001>003-012>014-020>022-031>034-043>046-232300-
   NORTHWEST IOWA

CITY           SKY/WX    TMP DP  RH WIND       PRES   REMARKS
CARROLL *      SUNNY     81  63  54 NE6       30.18F HX  82
CHEROKEE *     SUNNY     81  55  41 NE5       30.19F HX  80
DENISON *      SUNNY     79  59  50 NE7G13    30.16F HX  80
LE MARS *      SUNNY     81  59  47 N8G15     30.20F HX  81
ORANGE CITY *  SUNNY     81  54  39 NE6       30.21F HX  80
SHELDON *      MOSUNNY   79  59  50 NE5       30.20F HX  80
SIOUX CITY     SUNNY     83  57  41 NE7       30.18F HX  82
SPENCER        MOSUNNY   83  60  45 VRB5      30.21F HX  83
STORM LAKE *   SUNNY     79  59  50 CALM      30.21F HX  80
$$

IAZ055>058-069>071-079>083-090>094-232300-
   SOUTHWEST IOWA

CITY           SKY/WX    TMP DP  RH WIND       PRES   REMARKS
ATLANTIC *     SUNNY     81  61  50 NE10      30.15F HX  81
AUDUBON *      SUNNY     84  66  54 NE7       30.19F HX  86
CLARINDA *     SUNNY     84  64  51 NE6G14    30.15F HX  86
COUNCIL BLFS * SUNNY     82  61  47 VRB5G12   30.16F HX  83
CRESTON *      SUNNY     81  63  54 NE10      30.16F HX  82
HARLAN  *      SUNNY     81  63  54 NE10      30.20F HX  82
LAMONI         MOSUNNY   81  62  52 NE12G17   30.15F HX  82
RED OAK *      SUNNY     84  61  45 NE7G14    30.15F HX  84
SHENANDOAH *   SUNNY     84  64  51 N8        30.15F HX  86
$$

IAZ047>049-059>061-072>074-084-232300-
   CENTRAL IOWA

CITY           SKY/WX    TMP DP  RH WIND       PRES   REMARKS
AMES           MOSUNNY   80  57  45 NE13      30.17F HX  80
ANKENY *       MOSUNNY   81  59  47 NE12      30.17F HX  81
CHARITON *     MOSUNNY   79  61  53 N12       30.16F HX  80
DES MOINES     MOSUNNY   84  58  40 NE13      30.15F HX  83
GRINNELL*      MOSUNNY   79  55  44 NE10      30.18S
KNOXVILLE *    SUNNY     79  55  44 NE10G17   30.15S
MARSHALLTOWN   MOSUNNY   80  57  45 N8        30.17F HX  80
PELLA *        MOSUNNY   81  59  47 NE5       30.17S HX  81
PERRY *          N/A     81  59  47 NE7       30.18F HX  81
$$

IAZ004>006-015-016-023>025-035-036-232300-
   NORTH CENTRAL IOWA

CITY           SKY/WX    TMP DP  RH WIND       PRES   REMARKS
ALGONA *       MOSUNNY   79  55  44 VRB6      30.20F
CLARION *      SUNNY     79  57  47 CALM      30.20F HX  80
ESTHERVILLE    PTSUNNY   77  57  50 E6        30.21F
FORT DODGE *   PTSUNNY   79  57  47 E3        30.20F HX  80
MASON CITY     MOSUNNY   80  59  48 N8        30.21F HX  81
FOREST CITY *  MOSUNNY   79  55  44 NE8       30.20F
IOWA FALLS *   PTSUNNY   81  55  41 NE8       30.20F HX  80
$$

IAZ007>011-017>019-026>030-037>042-050>054-066-232300-
   NORTHEAST IOWA

CITY           SKY/WX    TMP DP  RH WIND       PRES   REMARKS
CEDAR RAPIDS   MOSUNNY   78  55  44 N8        30.15F
CHARLES CITY * PTSUNNY   79  57  47 NW7       30.20F HX  80
CLINTON *      SUNNY     77  57  50 N12       30.17F
DECORAH *      PTSUNNY   77  55  47 CALM      30.18F
DUBUQUE        PTSUNNY   74  56  53 N10       30.17F
MONTICELLO *   PTSUNNY   77  57  50 VRB7      30.16F
OELWEIN *      MOSUNNY   77  57  50 NE8       30.19F
WATERLOO       PTSUNNY   80  54  40 N8        30.17F HX  80
$$

IAZ064-065-067-068-078-232300-
   EAST CENTRAL IOWA

CITY           SKY/WX    TMP DP  RH WIND       PRES   REMARKS
DAVENPORT      MOSUNNY   79  57  46 NE15      30.15F HX  80
IOWA CITY      MOSUNNY   78  57  48 NE10      30.16F
MT. PLEASANT * SUNNY     79  55  44 N13       30.13F
MUSCATINE *    MOSUNNY   79  57  47 N9G15     30.13F HX  80
QUAD CITIES    MOSUNNY   78  53  41 N10G18    30.13F
$$

IAZ062-063-075>077-085>089-095>099-232300-
   SOUTHEAST IOWA

CITY           SKY/WX    TMP DP  RH WIND       PRES   REMARKS
BURLINGTON     SUNNY     79  58  48 NE13      30.12F HX  80
FAIRFIELD *    SUNNY     79  57  47 N13       30.14S HX  80
FORT MADISON * SUNNY     79  59  50 NE9       30.13S HX  80
KEOKUK *       SUNNY     79  61  53 NE10G17   30.10F HX  80
OSKALOOSA *      N/A     79  59  50 NE14      30.15S HX  80
CENTERVILLE *  SUNNY     79  61  53 N7        30.16R HX  80
OTTUMWA        SUNNY     80  57  45 NE10      30.14F HX  80
WASHINGTON *   SUNNY     79  59  50 NE10G16   30.14F HX  80
$$

ABBREVIATIONS USED IN REMARKS
   TC - TEMPERATURES IN CELSIUS
  WCI - WIND CHILL INDEX
   HX - HEAT INDEX
  VSB - VISIBILITY
$$




USA.gov is the U.S. government's official web portal to all federal, state and local government web resources and services.